Location: Petruro
(41.0333°N, 14.7833°E)
Time: 09:07:01
(UTC+00:00)

Meteor 2-6 Rocket - Pass Details

Date: 20 June 2021
Orbit: 805 x 915 km, 81.3° (Epoch: 04 August)

Event Time Altitude Azimuth Distance (km) Brightness Sun altitude
Rises 02:33:27 0° 346° (NNW) 3,539 7.8 -9.1°
Reaches altitude 10° 02:35:59 10° 342° (NNW) 2,583 7.1 -8.7°
Maximum altitude 02:41:43 57° 266° (W) 1,036 4.4 -7.9°
Drops below altitude 10° 02:47:16 10° 189° (S) 2,498 6.2 -7.1°
Sets 02:49:41 0° 185° (S) 3,414 6.9 -6.8°
